KJ5HMU-13 Weather Reports


time (UTC)temp
C
wind
direction
speed
KPH
gust
KPH
rain 1hr
cm
rain 24hr
cm
rain mn
cm
humidity
%
barometer
mb
20260505185131 5 28 8.0 12.9 0.00 0.08 0.08 80 1016.6
20260505184628 6 17 12.9 14.5 0.00 0.08 0.08 76 1016.5
20260505184125 6 22 4.8 6.4 0.00 0.08 0.08 71 1016.6
20260505183622 7 282 1.6 1.6 0.00 0.08 0.08 57 1016.6
20260505183120 8 261 0.0 0.0 0.00 0.08 0.08 55 1016.5
20260505182615 8 164 0.0 1.6 0.00 0.08 0.08 62 1016.2
20260505182113 8 149 3.2 3.2 0.00 0.08 0.08 63 1016.4
20260505181609 7 114 0.0 1.6 0.00 0.08 0.08 74 1016.6
20260505181107 7 107 0.0 1.6 0.00 0.08 0.08 76 1016.8
20260505180602 6 106 1.6 1.6 0.00 0.08 0.08 76 1016.9
20260505180100 6 28 0.0 0.0 0.00 0.08 0.08 80 1016.9
20260505175555 6 27 1.6 1.6 0.00 0.08 0.08 83 1017.0
20260505175052 5 14 0.0 0.0 0.00 0.08 0.08 86 1017.2
20260505174549 5 15 1.6 1.6 0.00 0.08 0.08 84 1017.3
20260505174045 5 2 0.0 0.0 0.00 0.08 0.08 88 1017.3
20260505173542 4 34 3.2 4.8 0.00 0.08 0.08 87 1017.4
20260505173039 4 6 4.8 6.4 0.00 0.08 0.08 87 1017.7
20260505172537 4 15 3.2 6.4 0.00 0.08 0.08 85 1017.4
20260505172033 5 10 9.7 12.9 0.00 0.08 0.08 85 1017.4
20260505171528 5 21 6.4 11.3 0.00 0.08 0.08 86 1017.5
20260505171025 5 16 6.4 6.4 0.00 0.08 0.08 84 1017.5
20260505170522 5 16 4.8 6.4 0.00 0.08 0.08 85 1017.5
20260505170018 5 8 1.6 1.6 0.00 0.08 0.08 86 1017.4
20260505165514 5 358 1.6 1.6 0.00 0.08 0.08 90 1017.5
20260505165009 4 19 1.6 1.6 0.00 0.08 0.08 91 1017.8
20260505164506 4 359 4.8 4.8 0.00 0.08 0.08 91 1017.8
20260505164004 3 25 3.2 4.8 0.00 0.08 0.08 92 1017.8
20260505163502 3 7 6.4 6.4 0.00 0.08 0.08 90 1017.9
20260505163003 4 16 4.8 4.8 0.00 0.08 0.08 91 1017.8
20260505162457 5 11 3.2 4.8 0.00 0.08 0.08 90 1017.8
20260505161954 5 38 0.0 0.0 0.00 0.08 0.08 91 1017.8
20260505161450 5 42 0.0 0.0 0.00 0.08 0.08 92 1017.9
20260505160948 5 27 0.0 0.0 0.00 0.08 0.08 92 1017.8
20260505160446 5 27 0.0 0.0 0.00 0.08 0.08 92 1017.9
20260505152922 5 25 0.0 0.0 0.00 0.08 0.08 95 1018.3
20260505152420 5 25 0.0 0.0 0.00 0.08 0.08 95 1018.2
20260505151919 5 25 0.0 0.0 0.00 0.08 0.08 96 1018.1
20260505151416 4 25 0.0 0.0 0.00 0.08 0.08 96 1018.3
20260505150913 4 22 0.0 0.0 0.00 0.08 0.08 97 1018.2
20260505150410 4 22 0.0 0.0 0.00 0.08 0.08 97 1018.2
20260505140334 2 10 0.0 0.0 0.00 0.08 0.08 98 1018.6
20260505130258 1 10 0.0 0.0 0.00 0.08 0.08 98 1019.0
20260505124748 1 10 0.0 0.0 0.00 0.08 0.08 98 1019.0
20260505124245 1 10 0.0 0.0 0.00 0.08 0.08 98 1019.0
20260505123740 1 10 0.0 0.0 0.00 0.08 0.08 98 1018.9
20260505123237 1 10 0.0 0.0 0.00 0.08 0.08 98 1018.7
20260505122734 1 10 0.0 0.0 0.00 0.08 0.08 98 1019.0
20260505122231 1 10 0.0 0.0 0.18 0.08 0.08 98 1019.0
20260505121728 1 10 0.0 0.0 0.18 0.08 0.08 98 1019.1
20260505121224 1 10 0.0 0.0 0.00 0.05 0.05 98 1019.0
20260505120721 1 10 0.0 0.0 0.00 0.05 0.05 98 1018.9
20260505120217 1 10 0.0 0.0 0.00 0.05 0.05 98 1019.0
20260505115715 1 10 0.0 0.0 0.00 0.05 0.05 98 1019.0
20260505115214 1 10 0.0 0.0 0.00 0.05 0.05 98 1019.0
20260505114711 1 10 0.0 0.0 0.00 0.05 0.05 98 1019.1
20260505114207 1 10 0.0 0.0 0.00 0.05 0.05 98 1019.0
20260505113703 1 10 0.0 0.0 0.00 0.05 0.05 98 1019.1
20260505113200 1 10 0.0 0.0 0.00 0.05 0.05 98 1019.1
20260505112656 1 10 0.0 0.0 0.00 0.05 0.05 98 1019.0
20260505112154 1 10 0.0 0.0 0.00 0.05 0.05 98 1019.0
20260505111654 1 10 0.0 0.0 0.00 0.05 0.05 98 1019.0
20260505111150 1 10 0.0 0.0 0.00 0.05 0.05 98 1019.0
20260505110646 1 10 0.0 0.0 0.00 0.05 0.05 98 1019.4
20260505110144 1 10 0.0 0.0 0.00 0.05 0.05 98 1019.0
20260505102119 1 10 0.0 0.0 0.00 0.05 0.05 98 1019.6
20260505101618 1 10 0.0 0.0 0.00 0.05 0.05 98 1019.6
20260505101113 1 10 0.0 0.0 0.00 0.05 0.05 98 1019.6
20260505100610 1 10 0.0 0.0 0.00 0.05 0.05 98 1019.5
20260505100107 1 10 0.0 0.0 0.00 0.05 0.05 98 1019.5
20260505095603 1 10 0.0 0.0 0.00 0.05 0.05 98 1020.0
20260505095100 1 10 0.0 0.0 0.00 0.05 0.05 98 1019.5
20260505094556 1 10 0.0 0.0 0.00 0.05 0.05 98 1019.9
20260505094052 1 11 0.0 0.0 0.13 0.05 0.05 98 1019.6
20260505093549 1 11 0.0 0.0 0.13 0.05 0.05 98 1020.2
20260505093047 1 11 0.0 0.0 0.00 0.03 0.03 98 1020.0
20260505092544 1 11 0.0 0.0 0.00 0.03 0.03 98 1019.9
20260505092042 1 11 0.0 0.0 0.00 0.03 0.03 98 1019.8
20260505091538 1 11 0.0 0.0 0.00 0.03 0.03 98 1020.0
20260505091037 1 11 0.0 0.0 0.00 0.03 0.03 98 1020.0
20260505090535 1 11 0.0 0.0 0.00 0.03 0.03 98 1019.9
20260505090032 1 11 0.0 0.0 0.00 0.03 0.03 98 1020.2
20260505085530 1 11 0.0 0.0 0.00 0.03 0.03 98 1020.2
20260505085028 1 11 0.0 0.0 0.00 0.03 0.03 98 1020.0
20260505084526 2 11 0.0 0.0 0.00 0.03 0.03 98 1020.7
20260505084024 1 11 0.0 0.0 0.00 0.03 0.03 98 1020.4
20260505083520 1 11 0.0 0.0 0.00 0.03 0.03 98 1020.7
20260505083017 1 11 0.0 0.0 0.00 0.03 0.03 98 1020.7
20260505082513 1 11 0.0 0.0 0.00 0.03 0.03 98 1020.8
20260505082010 1 11 0.0 0.0 0.00 0.03 0.03 97 1020.8
20260505081506 1 11 0.0 0.0 0.00 0.03 0.03 97 1020.7
20260505081003 1 11 0.0 0.0 0.00 0.03 0.03 97 1020.7
20260505080459 1 11 0.0 0.0 0.00 0.03 0.03 97 1020.8
20260505075955 1 11 0.0 0.0 0.00 0.03 0.03 97 1020.8
20260505075452 1 11 0.0 0.0 0.00 0.03 0.03 97 1020.7
20260505074949 1 11 0.0 0.0 0.00 0.03 0.03 97 1020.8
20260505074447 1 11 0.0 0.0 0.00 0.03 0.03 97 1020.8
20260505073944 1 11 0.0 0.0 0.18 0.03 0.03 97 1020.8
20260505073441 1 11 0.0 0.0 0.18 0.03 0.03 97 1020.8
20260505072938 1 11 0.0 0.0 0.00 0.00 0.00 97 1020.8
20260505072434 1 11 0.0 0.0 0.00 0.00 0.00 97 1021.1
20260505071930 1 11 0.0 0.0 0.00 0.00 0.00 97 1021.1
20260505071426 1 11 0.0 0.0 0.00 0.00 0.00 97 1021.1
20260505070925 1 11 0.0 0.0 0.00 0.00 0.00 97 1021.1
20260505070421 1 11 0.0 0.0 0.00 0.00 0.00 97 1021.1
20260505065917 1 11 0.0 0.0 0.00 0.00 0.00 97 1021.2
20260505065413 1 11 0.0 0.0 0.00 0.00 0.00 97 1021.3
20260505064910 1 11 0.0 0.0 0.00 0.00 0.00 97 1021.3
20260505064408 1 11 0.0 0.0 0.00 0.00 0.00 97 1021.3
20260505063906 1 11 0.0 0.0 0.00 0.00 0.00 97 1021.2
20260505063402 2 11 0.0 0.0 0.00 0.00 0.00 97 1021.2
20260505062858 2 11 0.0 0.0 0.00 0.00 0.00 97 1021.2
20260505062356 2 11 0.0 0.0 0.00 0.00 0.00 97 1021.2
20260505061852 2 11 0.0 0.0 0.00 0.00 0.00 97 1021.1
20260505061351 2 11 0.0 0.0 0.00 0.00 0.00 97 1021.1
20260505060848 2 11 0.0 0.0 0.00 0.00 0.00 97 1021.2
20260505060344 2 11 0.0 0.0 0.00 0.00 0.00 97 1021.3
20260505055840 2 11 0.0 0.0 0.00 0.28 0.28 97 1021.2
20260505055336 2 11 0.0 0.0 0.00 0.28 0.28 97 1021.3
20260505054834 2 11 0.0 0.0 0.00 0.28 0.28 97 1021.2
20260505054331 2 11 0.0 0.0 0.00 0.28 0.28 97 1021.5
20260505053829 2 11 0.0 0.0 0.00 0.28 0.28 97 1021.5
20260505053326 2 11 0.0 0.0 0.00 0.28 0.28 96 1021.3
20260505052823 2 11 0.0 0.0 0.00 0.28 0.28 96 1021.6
20260505052320 1 11 0.0 0.0 0.00 0.28 0.28 96 1021.5
20260505051817 1 11 0.0 0.0 0.00 0.28 0.28 96 1021.5
20260505051314 1 11 0.0 0.0 0.00 0.28 0.28 96 1021.5
20260505050812 1 11 0.0 0.0 0.00 0.28 0.28 96 1021.3
20260505050311 1 11 0.0 0.0 0.00 0.28 0.28 96 1021.3
20260505041740 2 11 0.0 0.0 0.00 0.28 0.28 96 1021.6
20260505041237 2 11 0.0 0.0 0.00 0.28 0.28 96 1021.9
20260505040734 2 11 0.0 0.0 0.00 0.28 0.28 96 1021.5
20260505040232 2 11 0.0 0.0 0.00 0.28 0.28 96 1021.6
20260505035729 2 11 0.0 0.0 0.00 0.28 0.28 96 1021.9
20260505035225 2 11 0.0 0.0 0.00 0.28 0.28 96 1021.6
20260505034722 2 11 0.0 0.0 0.00 0.28 0.28 96 1021.7
20260505034219 2 11 0.0 0.0 0.00 0.28 0.28 96 1021.3
20260505033715 2 11 0.0 1.6 0.00 0.28 0.28 96 1021.5
20260505033213 2 11 0.0 0.0 0.00 0.28 0.28 96 1021.5
20260505032711 2 11 0.0 0.0 0.00 0.28 0.28 96 1021.6
20260505032206 2 10 0.0 0.0 0.00 0.28 0.28 96 1021.7
20260505031704 2 10 0.0 0.0 0.00 0.28 0.28 96 1021.6
20260505031200 2 10 0.0 0.0 0.00 0.28 0.28 96 1021.9
20260505030657 2 10 0.0 0.0 0.00 0.28 0.28 96 1021.5
20260505030153 2 10 0.0 0.0 0.00 0.28 0.28 96 1021.6
20260505025649 2 10 0.0 0.0 0.00 0.28 0.28 96 1021.3
20260505025148 2 10 0.0 0.0 0.00 0.28 0.28 96 1021.3
20260505024645 2 10 0.0 0.0 0.00 0.28 0.28 96 1021.2
20260505024142 2 10 0.0 0.0 0.00 0.28 0.28 95 1021.2
20260505023640 2 10 0.0 0.0 0.00 0.28 0.28 95 1021.2
20260505023137 2 10 0.0 0.0 0.00 0.28 0.28 95 1021.2
20260505022634 2 10 0.0 0.0 0.00 0.28 0.28 95 1021.2
20260505022131 2 10 0.0 0.0 0.00 0.28 0.28 95 1020.9
20260505021628 2 10 0.0 0.0 0.00 0.28 0.28 95 1021.1
20260505021124 2 10 0.0 0.0 0.00 0.28 0.28 95 1020.9
20260505020620 2 10 0.0 0.0 0.00 0.28 0.28 95 1020.9
20260505020116 2 9 0.0 0.0 0.00 0.28 0.28 95 1020.9
20260505015614 2 9 0.0 0.0 0.00 0.28 0.28 94 1021.1
20260505015110 1 16 1.6 1.6 0.13 0.28 0.28 94 1020.9
20260505014607 1 19 3.2 3.2 0.13 0.28 0.28 94 1021.2
20260505014104 1 17 4.8 4.8 0.18 0.25 0.25 94 1020.9
20260505013601 1 16 4.8 9.7 0.48 0.25 0.25 93 1020.9
20260505013059 1 17 3.2 3.2 0.79 0.23 0.23 92 1021.2
20260505012556 2 29 8.0 9.7 0.61 0.18 0.18 92 1021.5
20260505012053 2 32 6.4 11.3 0.30 0.10 0.10 92 1021.2
20260505011549 2 21 4.8 4.8 0.30 0.08 0.08 91 1020.9
20260505011046 2 339 8.0 11.3 0.30 0.05 0.05 90 1020.4
20260505010541 3 34 6.4 9.7 0.18 0.03 0.03 88 1020.8
20260505010038 5 11 9.7 12.9 0.00 0.00 0.00 82 1020.3
20260505005534 6 334 4.8 6.4 0.00 0.00 0.00 75 1020.3
20260505005032 6 199 1.6 1.6 0.00 0.00 0.00 73 1020.2
20260505004529 6 200 1.6 1.6 0.00 0.00 0.00 74 1019.6
20260505004026 6 200 0.0 0.0 0.00 0.00 0.00 73 1019.5
20260505003523 6 200 0.0 0.0 0.00 0.00 0.00 73 1019.9
20260505003020 6 200 0.0 0.0 0.00 0.00 0.00 70 1019.9
20260505002515 6 200 0.0 0.0 0.00 0.00 0.00 71 1020.0
20260505002015 7 200 0.0 0.0 0.00 0.00 0.00 72 1020.0
20260505001511 7 200 0.0 0.0 0.00 0.00 0.00 74 1020.2
20260505001008 7 200 0.0 0.0 0.00 0.00 0.00 76 1020.3
20260505000506 7 200 0.0 0.0 0.00 0.00 0.00 75 1020.3
20260505000003 7 200 0.0 0.0 0.00 0.00 0.00 73 1020.6
20260504235500 7 203 0.0 0.0 0.00 0.00 0.00 76 1020.6
20260504234956 7 203 0.0 0.0 0.00 0.00 0.00 77 1020.4
20260504234454 7 203 0.0 0.0 0.00 0.00 0.00 78 1020.2
20260504233950 7 203 0.0 0.0 0.00 0.00 0.00 75 1020.7
20260504233446 7 203 0.0 0.0 0.00 0.00 0.00 76 1020.7
20260504232943 7 204 0.0 0.0 0.00 0.00 0.00 76 1020.4
20260504232440 7 203 0.0 0.0 0.00 0.00 0.00 77 1020.6
20260504231937 7 204 0.0 1.6 0.00 0.00 0.00 72 1020.8
20260504231433 8 208 0.0 0.0 0.00 0.00 0.00 73 1020.8
20260504230929 7 209 0.0 0.0 0.00 0.00 0.00 77 1021.2
20260504230426 7 209 0.0 0.0 0.00 0.00 0.00 75 1020.9
20260504225926 6 209 0.0 0.0 0.00 0.00 0.00 79 1021.1
20260504225422 7 209 0.0 0.0 0.00 0.00 0.00 77 1021.2
20260504224919 7 208 0.0 0.0 0.00 0.00 0.00 70 1021.3
20260504224416 8 199 0.0 0.0 0.00 0.00 0.00 60 1021.3
20260504223913 8 199 0.0 0.0 0.00 0.00 0.00 59 1021.1
20260504223408 8 191 0.0 0.0 0.00 0.00 0.00 57 1020.9
20260504222904 9 192 0.0 0.0 0.00 0.00 0.00 55 1020.8
20260504222402 10 200 0.0 0.0 0.00 0.00 0.00 55 1020.8
20260504221900 10 157 0.0 0.0 0.00 0.00 0.00 54 1021.1
20260504221356 10 156 0.0 0.0 0.00 0.00 0.00 53 1021.2
20260504220854 10 162 1.6 1.6 0.00 0.00 0.00 53 1021.3
20260504220350 9 151 3.2 3.2 0.00 0.00 0.00 58 1021.3
20260504215847 8 155 1.6 1.6 0.00 0.00 0.00 60 1021.3
20260504215343 8 200 1.6 1.6 0.00 0.00 0.00 65 1021.5
20260504214840 7 194 1.6 1.6 0.00 0.00 0.00 67 1021.6
20260504214337 7 198 0.0 0.0 0.00 0.00 0.00 69 1021.7
20260504213834 6 176 3.2 4.8 0.00 0.00 0.00 70 1021.7
20260504213329 6 142 0.0 1.6 0.00 0.00 0.00 68 1021.7
20260504212827 7 147 3.2 3.2 0.00 0.00 0.00 66 1021.5
20260504212323 7 156 1.6 1.6 0.00 0.00 0.00 64 1021.5
20260504211821 8 293 1.6 1.6 0.00 0.00 0.00 61 1021.3
20260504211317 9 146 0.0 0.0 0.00 0.00 0.00 57 1021.1
20260504210815 10 167 1.6 3.2 0.00 0.00 0.00 50 1020.8
20260504210312 12 158 6.4 11.3 0.00 0.00 0.00 42 1020.4
20260504205809 13 24 4.8 6.4 0.00 0.00 0.00 34 1020.2
20260504205306 13 130 0.0 0.0 0.00 0.00 0.00 36 1020.2
20260504204804 13 130 0.0 0.0 0.00 0.00 0.00 37 1020.0
20260504204302 14 131 1.6 1.6 0.00 0.00 0.00 34 1019.9
20260504203801 15 110 0.0 0.0 0.00 0.00 0.00 34 1019.9
20260504203258 14 187 0.0 0.0 0.00 0.00 0.00 36 1020.2
20260504202758 13 109 0.0 1.6 0.00 0.00 0.00 37 1020.3
20260504202256 14 157 0.0 0.0 0.00 0.00 0.00 38 1020.2
20260504201753 15 193 0.0 0.0 0.00 0.00 0.00 37 1020.3
20260504201250 14 145 1.6 1.6 0.00 0.00 0.00 37 1020.7
20260504200748 13 169 1.6 1.6 0.00 0.00 0.00 37 1020.7
20260504200243 12 101 0.0 0.0 0.00 0.00 0.00 41 1020.8
20260504195740 10 137 0.0 0.0 0.00 0.00 0.00 46 1020.8
20260504195236 11 200 0.0 0.0 0.00 0.00 0.00 45 1021.1
20260504194733 11 312 1.6 1.6 0.00 0.00 0.00 44 1020.9
20260504194229 12 333 3.2 4.8 0.00 0.00 0.00 43 1021.2
20260504193726 12 262 3.2 3.2 0.00 0.00 0.00 41 1021.2
20260504193223 12 65 1.6 3.2 0.00 0.00 0.00 44 1021.5
20260504192722 11 137 0.0 0.0 0.00 0.00 0.00 47 1021.3
20260504192219 11 109 0.0 0.0 0.00 0.00 0.00 47 1021.6
20260504191718 12 164 6.4 11.3 0.00 0.00 0.00 43 1021.2
20260504191214 13 167 1.6 6.4 0.00 0.00 0.00 43 1021.6
20260504190710 13 150 1.6 1.6 0.00 0.00 0.00 36 1021.3
20260504190206 13 152 4.8 6.4 0.00 0.00 0.00 35 1021.5
20260504185703 13 198 0.0 0.0 0.00 0.00 0.00 37 1021.3